Flag for Peru Weather past 2 weeks in Arequipa, Arequipa, Peru

Now
64 °F

Scattered clouds.


Feels Like: 64 °F
Forecast: N/A
Wind: 8 mph from West

Location: Arequipa Airport

Current Time: Apr 26, 2015 at 6:04:00 PM

Latest Report: Apr 26, 2015 at 5:00 PM


Visibility: N/A

Pressure: 30.27 "Hg

Humidity: 56%

Dew point: 48 °F

Location of ArequipaLocation

Historic Weather in Arequipa — Graph

°F

Arequipa temperature yesterday

Maximum temperature yesterday: 72 °F (at 11:00 AM)
Minimum temperature yesterday: 54 °F (at 1:00 AM)
Average temperature yesterday: 62 °F

Past Weeks' High & Low Weather Summary

 TemperatureHumidityPressure
High73 °F (Apr 14, 12:00 PM)88% (Apr 15, 7:00 PM)30.39 "Hg (Apr 15, 7:00 PM)
Low50 °F (Apr 21, 4:00 AM)21% (Apr 22, 7:00 PM)30.24 "Hg (Apr 18, 2:00 AM)
Average60 °F58%30.31 "Hg
* Reported Apr 11 5:00 PM — Apr 26 5:00 PM, Arequipa, Weather by CustomWeather, © 2015

Note: Actual official high and low records may vary slightly from our data, if they occured in-between our weather recording intervals... More about our weather records

Advertising

Arequipa weather history for previous 24 hours

 ConditionsComfort  
Time TempWeatherWind HumidityBarometerVisibility
5:00 PM
Sun, Apr 26
64 °FScattered clouds.8 mph56%30.27 "HgN/A
4:00 PM66 °FPassing clouds.13 mph52%30.27 "HgN/A
3:00 PM72 °FPassing clouds.10 mph38%30.27 "HgN/A
2:00 PM72 °FPassing clouds.13 mph38%30.27 "HgN/A
1:00 PM72 °FPassing clouds.12 mph38%30.27 "HgN/A
12:00 PM73 °FPassing clouds.12 mph36%30.30 "HgN/A
10:00 AM72 °FPassing clouds.6 mph36%30.33 "HgN/A
9:00 AM70 °FPassing clouds.5 mph40%30.33 "HgN/A
8:00 AM66 °FSunny.2 mph43%30.30 "Hg10 mi
7:00 AM57 °FSunny.5 mph63%30.30 "Hg10 mi
6:00 AM57 °FSunny.5 mph59%30.27 "Hg10 mi
5:00 AM57 °FPassing clouds.3 mph59%30.27 "HgN/A
4:00 AM57 °FPassing clouds.6 mph59%30.27 "HgN/A
3:00 AM57 °FPassing clouds.3 mph59%30.27 "HgN/A
2:00 AM59 °FPassing clouds.5 mph59%30.27 "HgN/A
1:00 AM59 °FPassing clouds.5 mph59%30.30 "HgN/A
12:00 AM59 °FPassing clouds.2 mph63%30.30 "HgN/A
11:00 PM
Sat, Apr 25
61 °FPassing clouds.3 mph59%30.33 "HgN/A
10:00 PM63 °FPassing clouds.5 mph56%30.33 "HgN/A
9:00 PM61 °FPassing clouds.3 mph59%30.33 "HgN/A
8:00 PM63 °FPassing clouds.5 mph56%30.33 "HgN/A
7:00 PM63 °FPassing clouds.3 mph59%30.30 "HgN/A
6:00 PM63 °FPassing clouds.2 mph59%30.27 "HgN/A
Weather by CustomWeather, © 2015

See weather overviewHow to use our weather pages